Weather History for Cozumel, Mexico

Change the Weather History Date:

Thursday, December 29, 2011

  Actual Average Record
Temperature  
Mean Temperature 70 °F -  
Max Temperature 77 °F 80 °F 84 °F (1996)
Min Temperature 62 °F 69 °F 55 °F (2010)
Cooling Degree Days 4    
Growing Degree Days 20 (Base 50)    
Moisture  
Dew Point 63 °F    
Average Humidity 78    
Maximum Humidity 94    
Minimum Humidity 61    
Precipitation  
Precipitation 0.00 in - - ()
Sea Level Pressure  
Sea Level Pressure 30.04 in    
Wind  
Wind Speed 3 mph ()    
Max Wind Speed 8 mph    
Max Gust Speed -    
Visibility 7.4 miles    
Events      
Averages and records for this station are not official NWS values.
T = Trace of Precipitation, MM = Missing Value Source: Averaged Metar Reports

Daily Weather History Graph

Daily Weather History Graph

Search for Another Location

Airport:

Trip Planner

Search our weather history database for the weather conditions in past years. The results will help you decide how hot, cold, wet, or windy it might be!

Date:

Astronomy

Dec. 29, 2011 Rise Set
Actual Time 6:22 AM CST 5:16 PM CST
Civil Twilight 5:58 AM CST 5:40 PM CST
Nautical Twilight 5:31 AM CST 6:08 PM CST
Astronomical Twilight 5:03 AM CST 6:35 PM CST
Moon 9:55 AM CST (12/29) 10:08 PM CST (12/29)
Length of Visible Light 11h 42m
Length of Day
10h 54m
Waxing Crescent, 27% of the Moon is Illuminated
Dec 29
Waxing Crescent
Jan 1
First Quarter
Jan 9
Full
Jan 16
Last Quarter
Jan 23
New

Hourly Weather History & Observations

Time (CST) Temp. Dew Point Humidity Pressure Visibility Wind Dir Wind Speed Gust Speed Precip Events Conditions
12:43 AM 62.6 °F 60.8 °F 94% 30.04 in 7.0 mi Calm Calm - N/A   Clear
1:43 AM 64.4 °F 60.8 °F 88% 30.02 in 7.0 mi East 3.5 mph - N/A   Clear
2:43 AM 64.4 °F 60.8 °F 88% 30.04 in 7.0 mi Calm Calm - N/A   Partly Cloudy
3:40 AM 62.6 °F 60.8 °F 94% 30.01 in 7.0 mi ENE 3.5 mph - N/A   Partly Cloudy
4:41 AM 64.4 °F 60.8 °F 88% 30.02 in 7.0 mi Calm Calm - N/A   Partly Cloudy
5:51 AM 66.2 °F 62.6 °F 88% 30.01 in 7.0 mi Calm Calm - N/A   Mostly Cloudy
6:40 AM 68.0 °F 62.6 °F 83% 30.04 in 7.0 mi East 3.5 mph - N/A   Mostly Cloudy
7:46 AM 69.8 °F 64.4 °F 83% 30.07 in 7.0 mi Calm Calm - N/A   Mostly Cloudy
8:43 AM 73.4 °F 66.2 °F 78% 30.11 in 8.0 mi ENE 5.8 mph - N/A   Mostly Cloudy
9:41 AM 75.2 °F 64.4 °F 69% 30.09 in 8.0 mi NE 5.8 mph - N/A   Mostly Cloudy
10:43 AM 75.2 °F 64.4 °F 69% 30.08 in 8.0 mi NNE 6.9 mph - N/A   Mostly Cloudy
11:42 AM 77.0 °F 64.4 °F 65% 30.04 in 8.0 mi NNE 6.9 mph - N/A   Mostly Cloudy
12:44 PM 77.0 °F 62.6 °F 61% 30.02 in 8.0 mi NE 8.1 mph - N/A   Mostly Cloudy
1:44 PM 77.0 °F 64.4 °F 65% 30.01 in 8.0 mi ENE 8.1 mph - N/A   Mostly Cloudy
2:41 PM 75.2 °F 62.6 °F 65% 30.02 in 8.0 mi ENE 8.1 mph - N/A   Mostly Cloudy
3:40 PM 77.0 °F 62.6 °F 61% 30.02 in 8.0 mi ENE 5.8 mph - N/A   Scattered Clouds
4:41 PM 71.6 °F 62.6 °F 73% 30.02 in 8.0 mi ENE 4.6 mph - N/A   Scattered Clouds
5:46 PM 69.8 °F 62.6 °F 78% 30.01 in 7.0 mi Calm Calm - N/A   Scattered Clouds
6:47 PM 69.8 °F 62.6 °F 78% 30.05 in 7.0 mi ENE 3.5 mph - N/A   Scattered Clouds
7:50 PM 71.6 °F 62.6 °F 73% 30.06 in 7.0 mi ENE 4.6 mph - N/A   Scattered Clouds
8:40 PM 69.8 °F 62.6 °F 78% 30.10 in 7.0 mi Calm Calm - N/A   Scattered Clouds
9:40 PM 69.8 °F 64.4 °F 83% 30.07 in 7.0 mi Calm Calm - N/A   Scattered Clouds
10:40 PM 69.8 °F 62.6 °F 78% 30.05 in 7.0 mi East 3.5 mph - N/A   Scattered Clouds
11:40 PM 69.8 °F 64.4 °F 83% 30.03 in 7.0 mi East 3.5 mph - N/A   Scattered Clouds